FW1304 Weather Reports


Display with metric or nautical units.
time (UTC)temp
F
wind
direction
speed
MPH
gust
MPH
rain 1hr
in
rain 24hr
in
rain mn
in
humidity
%
barometer
mb
20260903010817 80 128 0.0 0.0 0.00 0.00 0.00 61 1008.8
20260903010320 81 103 0.0 0.0 0.00 0.00 0.00 60 1008.7
20260903005836 81 106 0.0 0.0 0.00 0.00 0.00 60 1008.7
20260903005337 81 102 0.0 0.0 0.00 0.00 0.00 59 1008.7
20260903004837 81 109 0.0 0.0 0.00 0.00 0.00 59 1008.7
20260903004323 82 109 0.0 0.0 0.00 0.00 0.00 58 1008.7
20260903003856 82 108 0.0 0.0 0.00 0.00 0.00 58 1008.8
20260903003334 82 90 0.0 0.0 0.00 0.00 0.00 58 1008.8
20260903002819 82 67 0.0 0.0 0.00 0.00 0.00 57 1008.7
20260903002321 82 92 0.0 0.0 0.00 0.00 0.00 57 1008.7
20260903001835 83 113 0.0 0.0 0.00 0.00 0.00 57 1008.7
20260903001344 83 78 0.0 0.0 0.00 0.00 0.00 56 1008.7
20260903000817 83 121 0.0 0.0 0.00 0.00 0.00 56 1008.7
20260903000328 83 111 0.0 0.0 0.00 0.00 0.00 55 1008.7
20260902235843 83 98 0.0 0.0 0.00 0.00 0.00 54 1008.7
20260902235350 84 119 0.0 0.0 0.00 0.00 0.00 53 1008.7
20260902234840 84 138 0.0 1.0 0.00 0.00 0.00 52 1008.6
20260902234334 84 80 0.0 1.0 0.00 0.00 0.00 53 1008.6
20260902233837 84 49 0.0 0.0 0.00 0.00 0.00 53 1008.6
20260902233336 84 96 0.0 0.0 0.00 0.00 0.00 52 1008.6
20260902232817 84 30 0.0 0.0 0.00 0.00 0.00 52 1008.5
20260902232348 84 84 0.0 0.0 0.00 0.00 0.00 52 1008.6
20260902231830 85 76 0.0 0.0 0.00 0.00 0.00 53 1008.6
20260902231343 85 93 0.0 0.0 0.00 0.00 0.00 52 1008.6
20260902230825 85 45 0.0 1.0 0.00 0.00 0.00 53 1008.7
20260902230329 85 44 0.0 1.0 0.00 0.00 0.00 52 1008.7
20260902225817 85 98 0.0 2.0 0.00 0.00 0.00 52 1008.7
20260902225344 85 36 0.0 2.0 0.00 0.00 0.00 51 1008.7
20260902224818 85 29 0.0 1.0 0.00 0.00 0.00 51 1008.8
20260902224334 85 98 0.0 2.0 0.00 0.00 0.00 51 1008.7
20260902223837 86 35 0.0 2.0 0.00 0.00 0.00 50 1008.7
20260902223405 86 70 0.0 0.0 0.00 0.00 0.00 52 1008.7
20260902222832 86 109 0.0 0.0 0.00 0.00 0.00 52 1008.7
20260902222336 86 30 0.0 0.0 0.00 0.00 0.00 51 1008.7
20260902221821 86 59 0.0 1.0 0.00 0.00 0.00 52 1008.7
20260902221332 86 63 0.0 1.0 0.00 0.00 0.00 51 1008.8
20260902220836 86 5 0.0 2.0 0.00 0.00 0.00 51 1008.7
20260902220320 86 26 0.0 2.0 0.00 0.00 0.00 50 1008.7
20260902215845 86 30 0.0 1.0 0.00 0.00 0.00 49 1008.8
20260902215316 86 71 0.0 0.0 0.00 0.00 0.00 49 1008.8
20260902214818 87 55 0.0 1.0 0.00 0.00 0.00 50 1008.8
20260902214322 87 84 0.0 4.0 0.00 0.00 0.00 49 1008.9
20260902213822 87 111 0.0 4.0 0.00 0.00 0.00 49 1008.9
20260902213348 87 51 0.0 1.0 0.00 0.00 0.00 49 1008.9
20260902212840 87 39 0.0 1.0 0.00 0.00 0.00 50 1008.9
20260902212343 87 77 0.0 1.0 0.00 0.00 0.00 48 1009.0
20260902211818 87 63 0.0 0.0 0.00 0.00 0.00 51 1008.9
20260902211357 87 52 0.0 2.0 0.00 0.00 0.00 50 1009.0
20260902210821 87 49 0.0 0.0 0.00 0.00 0.00 49 1008.9
20260902210331 87 137 0.0 0.0 0.00 0.00 0.00 49 1009.0
20260902205844 87 126 0.0 0.0 0.00 0.00 0.00 49 1009.1
20260902205344 87 32 0.0 0.0 0.00 0.00 0.00 50 1009.0
20260902204818 87 138 0.0 0.0 0.00 0.00 0.00 49 1009.1
20260902204331 87 148 0.0 0.0 0.00 0.00 0.00 48 1009.1
20260902203902 87 148 0.0 0.0 0.00 0.00 0.00 47 1009.2
20260902203341 87 136 0.0 0.0 0.00 0.00 0.00 48 1009.2
20260902202905 88 132 0.0 0.0 0.00 0.00 0.00 48 1009.3
20260902202316 87 157 0.0 0.0 0.00 0.00 0.00 47 1009.2
20260902201848 87 197 0.0 0.0 0.00 0.00 0.00 46 1009.1
20260902201332 86 152 0.0 0.0 0.00 0.00 0.00 49 1009.2
20260902200835 86 138 0.0 0.0 0.00 0.00 0.00 47 1009.3
20260902200338 86 173 0.0 0.0 0.00 0.00 0.00 47 1009.3
20260902195852 86 138 0.0 1.0 0.00 0.00 0.00 48 1009.4
20260902195331 86 152 0.0 1.0 0.00 0.00 0.00 50 1009.4
20260902194904 85 22 0.0 1.0 0.00 0.00 0.00 48 1009.5
20260902194329 85 55 0.0 1.0 0.00 0.00 0.00 49 1009.6
20260902193833 85 46 0.0 1.0 0.00 0.00 0.00 50 1009.6
20260902193400 85 86 0.0 0.0 0.00 0.00 0.00 49 1009.6
20260902192834 85 29 0.0 0.0 0.00 0.00 0.00 49 1009.7
20260902192403 85 130 0.0 0.0 0.00 0.00 0.00 49 1009.8
20260902191840 85 37 0.0 0.0 0.00 0.00 0.00 49 1009.8
20260902191324 85 71 0.0 0.0 0.00 0.00 0.00 50 1009.8
20260902190836 85 173 0.0 0.0 0.00 0.00 0.00 50 1009.9
20260902190338 84 60 0.0 0.0 0.00 0.00 0.00 52 1009.9
20260902185821 84 5 0.0 1.0 0.00 0.00 0.00 51 1010.0
20260902185354 84 84 0.0 1.0 0.00 0.00 0.00 51 1010.1
20260902184836 84 126 0.0 0.0 0.00 0.00 0.00 52 1010.1
20260902184329 84 115 0.0 0.0 0.00 0.00 0.00 53 1010.1
20260902183828 83 171 0.0 0.0 0.00 0.00 0.00 54 1010.1
20260902183331 83 138 0.0 0.0 0.00 0.00 0.00 54 1010.2
20260902182821 83 102 0.0 0.0 0.00 0.00 0.00 52 1010.3
20260902182334 83 116 0.0 1.0 0.00 0.00 0.00 53 1010.3
20260902181834 83 148 0.0 1.0 0.00 0.00 0.00 55 1010.3
20260902181317 82 165 0.0 0.0 0.00 0.00 0.00 55 1010.5
20260902180820 82 116 0.0 0.0 0.00 0.00 0.00 57 1010.6
20260902180353 82 213 0.0 0.0 0.00 0.00 0.00 57 1010.6
20260902175843 82 208 0.0 0.0 0.00 0.00 0.00 60 1010.5
20260902175316 81 204 0.0 0.0 0.00 0.00 0.00 61 1010.5
20260902174819 81 113 0.0 0.0 0.00 0.00 0.00 60 1010.6
20260902174402 81 235 0.0 0.0 0.00 0.00 0.00 60 1010.6
20260902173840 81 133 0.0 0.0 0.00 0.00 0.00 60 1010.8
20260902173343 81 63 0.0 0.0 0.00 0.00 0.00 62 1010.6
20260902172839 80 205 0.0 0.0 0.00 0.00 0.00 62 1010.9
20260902172343 80 194 0.0 0.0 0.00 0.00 0.00 64 1011.0
20260902171820 80 132 0.0 1.0 0.00 0.00 0.00 63 1011.0
20260902171320 80 159 0.0 0.0 0.00 0.00 0.00 63 1011.0
20260902170832 79 160 0.0 0.0 0.00 0.00 0.00 63 1010.9
20260902170316 79 182 0.0 0.0 0.00 0.00 0.00 66 1011.0
20260902165826 79 117 0.0 0.0 0.00 0.00 0.00 63 1011.0
20260902165328 79 171 0.0 0.0 0.00 0.00 0.00 64 1011.0
20260902164830 78 5 0.0 0.0 0.00 0.00 0.00 65 1011.0
20260902164342 78 69 0.0 0.0 0.00 0.00 0.00 65 1011.1
20260902163849 78 68 0.0 0.0 0.00 0.00 0.00 66 1011.0
20260902163331 78 360 0.0 0.0 0.00 0.00 0.00 68 1011.1
20260902162816 77 29 0.0 0.0 0.00 0.00 0.00 68 1011.1
20260902162328 77 30 0.0 0.0 0.00 0.00 0.00 68 1010.9
20260902161827 77 84 0.0 0.0 0.00 0.00 0.00 70 1010.9
20260902161339 77 121 0.0 0.0 0.00 0.00 0.00 69 1011.1
20260902160840 76 278 0.0 0.0 0.00 0.00 0.00 69 1011.2
20260902160342 76 360 0.0 0.0 0.00 0.00 0.00 71 1011.2
20260902155833 76 300 0.0 0.0 0.00 0.00 0.00 70 1011.2
20260902155335 76 11 0.0 0.0 0.00 0.00 0.00 71 1011.0
20260902154839 76 28 0.0 0.0 0.00 0.00 0.00 71 1011.1
20260902154323 76 39 0.0 0.0 0.00 0.00 0.00 72 1011.0
20260902153852 75 36 0.0 0.0 0.00 0.00 0.00 71 1010.8
20260902153404 75 36 0.0 0.0 0.00 0.00 0.00 71 1010.9
20260902152829 75 49 0.0 0.0 0.00 0.00 0.00 73 1010.9
20260902152333 75 138 0.0 0.0 0.00 0.00 0.00 73 1010.8
20260902151830 74 187 0.0 0.0 0.00 0.00 0.00 74 1010.9
20260902151331 74 188 0.0 0.0 0.00 0.00 0.00 74 1010.7
20260902150816 74 188 0.0 0.0 0.00 0.00 0.00 74 1010.8
20260902150319 74 213 0.0 0.0 0.00 0.00 0.00 75 1011.0
20260902145836 74 213 0.0 0.0 0.00 0.00 0.00 74 1011.0
20260902145335 74 232 0.0 0.0 0.00 0.00 0.00 74 1011.0
20260902144818 74 236 0.0 0.0 0.00 0.00 0.00 73 1010.8
20260902144331 74 194 0.0 0.0 0.00 0.00 0.00 73 1010.8
20260902143833 74 207 0.0 0.0 0.00 0.00 0.00 73 1010.8
20260902143334 74 205 0.0 0.0 0.00 0.00 0.00 73 1010.9
20260902142819 74 161 0.0 0.0 0.00 0.00 0.00 73 1010.7
20260902142320 74 181 0.0 0.0 0.00 0.00 0.00 74 1010.7
20260902141852 74 182 0.0 0.0 0.00 0.00 0.00 75 1010.7
20260902141349 73 118 0.0 0.0 0.00 0.00 0.00 75 1010.8
20260902140831 73 117 0.0 0.0 0.00 0.00 0.00 76 1011.0
20260902140403 73 111 0.0 0.0 0.00 0.00 0.00 76 1011.0
20260902135850 72 5 0.0 0.0 0.00 0.00 0.00 78 1011.3
20260902135331 72 5 0.0 0.0 0.00 0.00 0.00 78 1011.3
20260902134834 71 5 0.0 0.0 0.00 0.00 0.00 79 1011.3
20260902134320 71 332 0.0 0.0 0.00 0.00 0.00 80 1011.3
20260902133846 70 238 0.0 0.0 0.00 0.00 0.00 82 1011.2
20260902133326 70 232 0.0 0.0 0.00 0.00 0.00 83 1011.2
20260902132859 69 172 0.0 0.0 0.00 0.00 0.00 84 1011.2
20260902132341 69 169 0.0 0.0 0.00 0.00 0.00 85 1011.1
20260902131840 68 169 0.0 0.0 0.00 0.00 0.00 85 1011.2
20260902131404 68 169 0.0 0.0 0.00 0.00 0.00 85 1011.0
20260902130827 67 170 0.0 0.0 0.00 0.00 0.00 85 1011.0
20260902130341 67 171 0.0 0.0 0.00 0.00 0.00 85 1011.0
20260902125839 67 171 0.0 0.0 0.00 0.00 0.00 85 1011.1
20260902125337 67 170 0.0 0.0 0.00 0.00 0.00 86 1011.3
20260902124818 67 176 0.0 0.0 0.00 0.00 0.00 86 1011.4
20260902124339 67 177 0.0 0.0 0.00 0.00 0.00 86 1011.3
20260902123841 67 177 0.0 0.0 0.00 0.00 0.00 86 1011.4
20260902123340 67 177 0.0 0.0 0.00 0.00 0.00 86 1011.4
20260902122835 67 178 0.0 0.0 0.00 0.00 0.00 86 1011.2
20260902122338 67 178 0.0 0.0 0.00 0.00 0.00 86 1011.3
20260902121842 67 178 0.0 0.0 0.00 0.00 0.00 85 1011.2
20260902121325 67 178 0.0 0.0 0.00 0.00 0.00 86 1011.1
20260902120857 67 178 0.0 0.0 0.00 0.00 0.00 85 1011.0
20260902120340 67 178 0.0 0.0 0.00 0.00 0.00 85 1010.9
20260902115827 67 196 0.0 0.0 0.00 0.00 0.00 85 1011.1
20260902115334 68 196 0.0 0.0 0.00 0.00 0.00 85 1011.1
20260902114837 68 200 0.0 0.0 0.00 0.00 0.00 85 1011.2
20260902114323 68 202 0.0 0.0 0.00 0.00 0.00 85 1011.3
20260902113826 68 202 0.0 0.0 0.00 0.00 0.00 84 1011.3
20260902113328 68 202 0.0 0.0 0.00 0.00 0.00 84 1011.2
20260902112842 68 202 0.0 0.0 0.00 0.00 0.00 84 1011.3
20260902112317 68 202 0.0 0.0 0.00 0.00 0.00 84 1011.2
20260902111820 68 202 0.0 0.0 0.00 0.00 0.00 83 1011.1
20260902111329 68 202 0.0 0.0 0.00 0.00 0.00 83 1011.1
20260902110831 68 202 0.0 0.0 0.00 0.00 0.00 83 1011.2
20260902110344 68 202 0.0 0.0 0.00 0.00 0.00 83 1011.1
20260902105831 69 202 0.0 0.0 0.00 0.00 0.00 82 1011.2
20260902105334 69 202 0.0 0.0 0.00 0.00 0.00 82 1011.2
20260902104835 69 202 0.0 0.0 0.00 0.00 0.00 82 1011.3
20260902104320 69 202 0.0 0.0 0.00 0.00 0.00 82 1011.3
20260902103823 69 212 0.0 0.0 0.00 0.00 0.00 81 1011.3
20260902103355 69 206 0.0 0.0 0.00 0.00 0.00 81 1011.4
20260902102844 69 201 0.0 0.0 0.00 0.00 0.00 81 1011.4
20260902102318 69 208 0.0 0.0 0.00 0.00 0.00 81 1011.5
20260902101821 69 209 0.0 0.0 0.00 0.00 0.00 80 1011.3
20260902101401 69 59 0.0 0.0 0.00 0.00 0.00 80 1010.9
20260902100842 69 55 0.0 0.0 0.00 0.00 0.00 80 1010.9
20260902100328 69 55 0.0 0.0 0.00 0.00 0.00 79 1010.8
20260902095845 69 55 0.0 0.0 0.00 0.00 0.00 79 1010.5
20260902095337 69 49 0.0 0.0 0.00 0.00 0.00 79 1010.4
20260902094838 69 46 0.0 0.0 0.00 0.00 0.00 80 1010.4
20260902094340 69 47 0.0 0.0 0.00 0.00 0.00 80 1010.4
20260902093844 69 48 0.0 0.0 0.00 0.00 0.00 80 1010.3
20260902093318 69 41 0.0 0.0 0.00 0.00 0.00 81 1010.3
20260902092905 69 34 0.0 0.0 0.00 0.00 0.00 81 1010.3
20260902092317 69 80 0.0 0.0 0.00 0.00 0.00 81 1010.2
20260902091820 69 124 0.0 0.0 0.00 0.00 0.00 80 1010.1
20260902091332 69 131 0.0 0.0 0.00 0.00 0.00 80 1010.1
20260902090901 69 139 0.0 0.0 0.00 0.00 0.00 80 1010.3
20260902090343 69 139 0.0 0.0 0.00 0.00 0.00 80 1010.1
20260902085837 69 140 0.0 0.0 0.00 0.00 0.00 80 1010.0
20260902085321 69 140 0.0 1.0 0.00 0.00 0.00 80 1010.1
20260902084818 69 140 0.0 1.0 0.00 0.00 0.00 80 1010.1
20260902084322 69 151 0.0 0.0 0.00 0.00 0.00 80 1010.4
20260902083831 69 151 0.0 0.0 0.00 0.00 0.00 79 1010.6
20260902083344 69 151 0.0 0.0 0.00 0.00 0.00 79 1010.6
20260902082826 69 151 0.0 0.0 0.00 0.00 0.00 80 1010.6
20260902082329 69 151 0.0 0.0 0.00 0.00 0.00 80 1010.8
20260902081841 69 151 0.0 0.0 0.00 0.00 0.00 80 1010.7
20260902081328 69 153 0.0 0.0 0.00 0.00 0.00 80 1010.7
20260902080831 69 180 0.0 0.0 0.00 0.00 0.00 80 1010.8
20260902080333 69 161 0.0 0.0 0.00 0.00 0.00 81 1011.1
20260902075847 69 188 0.0 0.0 0.00 0.00 0.00 81 1010.9
20260902075339 69 156 0.0 0.0 0.00 0.00 0.00 81 1010.7
20260902074836 69 215 0.0 0.0 0.00 0.00 0.00 81 1010.8
20260902074322 69 139 0.0 0.0 0.00 0.00 0.00 81 1010.5
20260902073833 69 140 0.0 0.0 0.00 0.00 0.00 81 1010.4
20260902073344 69 146 0.0 0.0 0.00 0.00 0.00 80 1010.6
20260902072827 70 149 0.0 0.0 0.00 0.00 0.00 80 1010.9
20260902072330 70 149 0.0 0.0 0.00 0.00 0.00 79 1010.9
20260902071833 70 149 0.0 0.0 0.00 0.00 0.00 78 1010.9
20260902071345 70 150 0.0 0.0 0.00 0.00 0.00 78 1011.0
20260902070841 70 150 0.0 0.0 0.00 0.00 0.00 77 1010.9
20260902070344 70 169 0.0 0.0 0.00 0.00 0.00 77 1010.9
20260902065829 70 170 0.0 0.0 0.00 0.00 0.00 77 1011.0
20260902065332 70 170 0.0 0.0 0.00 0.00 0.00 77 1011.2
20260902064832 70 194 0.0 0.0 0.00 0.00 0.00 77 1011.4
20260902064319 70 174 0.0 0.0 0.00 0.00 0.00 77 1011.6
20260902063828 70 196 0.0 0.0 0.00 0.00 0.00 77 1011.7
20260902063341 70 207 0.0 0.0 0.00 0.00 0.00 78 1011.6
20260902062826 70 153 0.0 0.0 0.00 0.00 0.00 80 1011.6
20260902062354 70 78 0.0 0.0 0.00 0.00 0.00 79 1011.2
20260902061817 70 78 0.0 0.0 0.00 0.00 0.00 78 1011.0
20260902061333 70 78 0.0 0.0 0.00 0.00 0.00 77 1010.9
20260902060901 70 74 0.0 0.0 0.00 0.00 0.00 77 1011.0
20260902060343 70 34 0.0 0.0 0.00 0.00 0.00 76 1010.9
20260902055843 70 32 0.0 0.0 0.00 0.00 0.00 76 1010.6
20260902055326 70 32 0.0 0.0 0.00 0.00 0.00 75 1010.5
20260902054854 71 32 0.0 0.0 0.00 0.00 0.00 75 1010.7
20260902054343 71 30 0.0 0.0 0.00 0.00 0.00 75 1010.9
20260902053846 71 30 0.0 0.0 0.00 0.00 0.00 75 1011.1
20260902053358 71 30 0.0 0.0 0.00 0.00 0.00 75 1011.3
20260902052849 71 30 0.0 0.0 0.00 0.00 0.00 74 1011.3
20260902052401 72 30 0.0 0.0 0.00 0.00 0.00 72 1011.4
20260902051844 72 30 0.0 0.0 0.00 0.00 0.00 71 1011.7
20260902051328 72 30 0.0 0.0 0.00 0.00 0.00 71 1011.7
20260902050831 72 30 0.0 0.0 0.00 0.00 0.00 71 1011.7
20260902050316 73 30 0.0 0.0 0.00 0.00 0.00 70 1011.6
20260902045827 73 30 0.0 0.0 0.00 0.00 0.00 69 1011.5
20260902045326 73 30 0.0 0.0 0.00 0.00 0.00 69 1011.5
20260902044829 73 30 0.0 0.0 0.00 0.00 0.00 69 1011.3
20260902044331 73 30 0.0 0.0 0.00 0.00 0.00 69 1011.4
20260902043834 72 30 0.0 0.0 0.00 0.00 0.00 70 1011.4
20260902043338 72 20 0.0 0.0 0.00 0.00 0.00 70 1011.4
20260902042848 72 20 0.0 0.0 0.00 0.00 0.00 72 1011.2
20260902042330 72 28 0.0 0.0 0.00 0.00 0.00 73 1011.0
20260902041843 72 49 0.0 0.0 0.00 0.00 0.00 75 1010.8
20260902041355 72 51 0.0 0.0 0.00 0.00 0.00 74 1010.9
20260902040837 72 46 0.0 0.0 0.00 0.00 0.00 74 1010.7
20260902040340 72 19 0.0 0.0 0.00 0.00 0.00 75 1010.9
20260902035854 72 26 0.0 0.0 0.00 0.00 0.00 75 1010.9
20260902035316 72 38 0.0 0.0 0.00 0.00 0.00 74 1011.1
20260902034842 72 38 0.0 0.0 0.00 0.00 0.00 74 1011.3
20260902034325 72 38 0.0 0.0 0.00 0.00 0.00 73 1011.3
20260902033828 73 38 0.0 0.0 0.00 0.00 0.00 73 1011.3
20260902033357 73 38 0.0 0.0 0.00 0.00 0.00 73 1011.3
20260902032822 73 38 0.0 0.0 0.00 0.00 0.00 72 1011.4
20260902032326 73 38 0.0 0.0 0.00 0.00 0.00 72 1011.5
20260902031829 73 38 0.0 0.0 0.00 0.00 0.00 71 1011.6
20260902031339 73 38 0.0 0.0 0.00 0.00 0.00 72 1011.6
20260902030841 73 38 0.0 0.0 0.00 0.00 0.00 73 1011.7
20260902030343 73 38 0.0 0.0 0.00 0.00 0.00 72 1011.6
20260902025830 73 38 0.0 0.0 0.00 0.00 0.00 72 1011.3
20260902025333 73 38 0.0 0.0 0.00 0.00 0.00 72 1011.3
20260902024831 73 38 0.0 0.0 0.00 0.00 0.00 70 1011.3
20260902024330 74 38 0.0 0.0 0.00 0.00 0.00 68 1011.4
20260902023833 74 38 0.0 0.0 0.00 0.00 0.00 68 1011.2
20260902023316 74 38 0.0 0.0 0.00 0.00 0.00 68 1011.2
20260902022827 74 38 0.0 0.0 0.00 0.00 0.00 67 1011.1
20260902022329 74 38 0.0 0.0 0.00 0.00 0.00 66 1011.2
20260902021832 74 38 0.0 0.0 0.00 0.00 0.00 66 1011.2
20260902021327 75 38 0.0 0.0 0.00 0.00 0.00 65 1011.2
20260902020827 75 38 0.0 0.0 0.00 0.00 0.00 65 1011.2
20260902020359 75 38 0.0 0.0 0.00 0.00 0.00 64 1011.3
20260902015827 75 38 0.0 0.0 0.00 0.00 0.00 63 1011.1
20260902015339 75 38 0.0 0.0 0.00 0.00 0.00 63 1011.1
20260902014839 76 38 0.0 0.0 0.00 0.00 0.00 63 1011.1
20260902014324 76 38 0.0 0.0 0.00 0.00 0.00 61 1011.0
20260902013827 76 38 0.0 0.0 0.00 0.00 0.00 61 1010.9
20260902013340 77 38 0.0 0.0 0.00 0.00 0.00 60 1010.9
20260902012824 77 38 0.0 0.0 0.00 0.00 0.00 59 1010.9
20260902012325 77 38 0.0 0.0 0.00 0.00 0.00 58 1010.9
20260902011837 77 38 0.0 0.0 0.00 0.00 0.00 57 1010.8
20260902011324 78 38 0.0 0.0 0.00 0.00 0.00 57 1010.8